SUT8643 CYOA-CYZF

Flight info

Callsign SUT8643
Flight time 0h 47m
Altitude 22000
Route UKONA
Aircraft RJ1H/M-SDFGIRWY/LB1

Departure

Time 2026-05-06 00:21
Airport Ekati Airport (CYOA)

Arrival

Time 2026-05-06 01:09
Airport Yellowknife International Airport (CYZF)
Time Latitude Longitude Altitude Speed Heading
2026-05-05 23:52 64.70676 -110.61113 1515 ft 0 kts 23°
2026-05-06 00:05 64.70672 -110.61116 1514 ft 3 kts 22°
2026-05-06 00:06 64.70655 -110.61133 1513 ft 3 kts 35°
2026-05-06 00:06 64.70644 -110.61167 1511 ft 3 kts 77°
2026-05-06 00:06 64.70644 -110.61185 1515 ft 0 kts 99°
2026-05-06 00:16 64.70644 -110.61184 1517 ft 0 kts 99°
2026-05-06 00:16 64.70641 -110.61160 1517 ft 3 kts 108°
2026-05-06 00:16 64.70628 -110.61077 1514 ft 8 kts 110°
2026-05-06 00:17 64.70611 -110.60974 1515 ft 0 kts 114°
2026-05-06 00:18 64.70608 -110.60958 1514 ft 3 kts 114°
2026-05-06 00:18 64.70594 -110.60884 1512 ft 7 kts 112°
2026-05-06 00:18 64.70602 -110.60745 1515 ft 11 kts 56°
2026-05-06 00:18 64.70668 -110.60635 1512 ft 9 kts
2026-05-06 00:19 64.70671 -110.60714 1514 ft 5 kts 166°
2026-05-06 00:19 64.70655 -110.60712 1514 ft 4 kts 187°
2026-05-06 00:19 64.70639 -110.60723 1512 ft 0 kts 202°
2026-05-06 00:20 64.70622 -110.60739 1515 ft 20 kts 202°
2026-05-06 00:20 64.70263 -110.61100 1512 ft 90 kts 203°
2026-05-06 00:20 64.69519 -110.61834 1570 ft 135 kts 202°
2026-05-06 00:21 64.68642 -110.62707 2123 ft 138 kts 203°
2026-05-06 00:21 64.67716 -110.63633 2635 ft 156 kts 204°
2026-05-06 00:21 64.66713 -110.64824 3217 ft 163 kts 217°
2026-05-06 00:21 64.65867 -110.66448 4087 ft 153 kts 220°
2026-05-06 00:22 64.65041 -110.68168 4594 ft 171 kts 225°
2026-05-06 00:22 64.64126 -110.70252 4858 ft 197 kts 225°
2026-05-06 00:22 64.63112 -110.72597 5428 ft 213 kts 225°
2026-05-06 00:22 64.61995 -110.75090 5829 ft 232 kts 223°
2026-05-06 00:23 64.60753 -110.77704 6152 ft 248 kts 222°
2026-05-06 00:23 64.59413 -110.80362 6598 ft 255 kts 220°
2026-05-06 00:23 64.58049 -110.82953 7038 ft 258 kts 219°
2026-05-06 00:23 64.56626 -110.85613 7519 ft 261 kts 219°
2026-05-06 00:24 64.55202 -110.88180 8039 ft 264 kts 218°
2026-05-06 00:24 64.53736 -110.90790 8619 ft 267 kts 218°
2026-05-06 00:24 64.52252 -110.93432 9237 ft 270 kts 219°
2026-05-06 00:24 64.50758 -110.96125 9894 ft 274 kts 219°
2026-05-06 00:25 64.49236 -110.98862 10550 ft 278 kts 219°
2026-05-06 00:25 64.47694 -111.01622 11225 ft 282 kts 219°
2026-05-06 00:25 64.46126 -111.04412 11937 ft 286 kts 219°
2026-05-06 00:25 64.44534 -111.07232 12625 ft 290 kts 219°
2026-05-06 00:26 64.42915 -111.10095 13309 ft 294 kts 220°
2026-05-06 00:26 64.41285 -111.12995 13968 ft 298 kts 220°
2026-05-06 00:26 64.39626 -111.15937 14519 ft 302 kts 220°
2026-05-06 00:26 64.37937 -111.18907 15051 ft 307 kts 221°
2026-05-06 00:27 64.36235 -111.21927 15550 ft 311 kts 221°
2026-05-06 00:27 64.34522 -111.24942 16053 ft 315 kts 221°
2026-05-06 00:27 64.32759 -111.28041 16528 ft 320 kts 222°
2026-05-06 00:27 64.30981 -111.31174 17001 ft 324 kts 222°
2026-05-06 00:28 64.29173 -111.34340 17459 ft 328 kts 222°
2026-05-06 00:28 64.27345 -111.37532 17894 ft 332 kts 223°
2026-05-06 00:28 64.25496 -111.40780 18328 ft 336 kts 223°
2026-05-06 00:28 64.23626 -111.44047 18703 ft 339 kts 223°
2026-05-06 00:29 64.21730 -111.47331 19065 ft 342 kts 224°
2026-05-06 00:29 64.19830 -111.50656 19416 ft 344 kts 224°
2026-05-06 00:29 64.17946 -111.53951 19768 ft 346 kts 224°
2026-05-06 00:29 64.16017 -111.57311 20112 ft 349 kts 224°
2026-05-06 00:30 64.14076 -111.60675 20440 ft 351 kts 224°
2026-05-06 00:30 64.12124 -111.64047 20781 ft 353 kts 224°
2026-05-06 00:30 64.10151 -111.67440 21107 ft 355 kts 224°
2026-05-06 00:30 64.08164 -111.70842 21410 ft 357 kts 224°
2026-05-06 00:31 64.06172 -111.74260 21709 ft 359 kts 225°
2026-05-06 00:31 64.04181 -111.77720 21998 ft 360 kts 225°
2026-05-06 00:31 64.02179 -111.81199 22164 ft 364 kts 225°
2026-05-06 00:31 64.00176 -111.84609 22198 ft 356 kts 224°
2026-05-06 00:32 63.98188 -111.87978 22206 ft 356 kts 225°
2026-05-06 00:32 63.96212 -111.91412 22207 ft 356 kts 227°
2026-05-06 00:32 63.94329 -111.95050 22214 ft 354 kts 230°
2026-05-06 00:32 63.92501 -111.98795 22213 ft 354 kts 231°
2026-05-06 00:33 63.90688 -112.02581 22210 ft 353 kts 231°
2026-05-06 00:33 63.88888 -112.06367 22210 ft 353 kts 231°
2026-05-06 00:33 63.87081 -112.10163 22209 ft 353 kts 231°
2026-05-06 00:33 63.85289 -112.13872 22210 ft 354 kts 231°
2026-05-06 00:34 63.83470 -112.17623 22204 ft 354 kts 230°
2026-05-06 00:34 63.81631 -112.21355 22207 ft 355 kts 230°
2026-05-06 00:34 63.79789 -112.25060 22204 ft 355 kts 230°
2026-05-06 00:34 63.77940 -112.28764 22206 ft 355 kts 230°
2026-05-06 00:35 63.76090 -112.32469 22203 ft 354 kts 230°
2026-05-06 00:35 63.74255 -112.36139 22199 ft 345 kts 230°
2026-05-06 00:35 63.72492 -112.39641 22185 ft 331 kts 230°
2026-05-06 00:35 63.70797 -112.43032 22171 ft 321 kts 230°
2026-05-06 00:36 63.69694 -112.45242 22167 ft 321 kts 230°
2026-05-06 00:36 63.68023 -112.48598 22176 ft 322 kts 231°
2026-05-06 00:36 63.65815 -112.53059 22183 ft 322 kts 231°
2026-05-06 00:36 63.64689 -112.55336 22189 ft 322 kts 231°
2026-05-06 00:37 63.62473 -112.59751 22195 ft 321 kts 230°
2026-05-06 00:37 63.61334 -112.62003 22196 ft 322 kts 230°
2026-05-06 00:37 63.59646 -112.65329 22194 ft 323 kts 230°
2026-05-06 00:37 63.57972 -112.68632 22197 ft 326 kts 230°
2026-05-06 00:38 63.56268 -112.72001 22194 ft 325 kts 230°
2026-05-06 00:38 63.54570 -112.75355 22192 ft 324 kts 230°
2026-05-06 00:38 63.52872 -112.78708 22193 ft 325 kts 230°
2026-05-06 00:38 63.51177 -112.82061 22195 ft 325 kts 230°
2026-05-06 00:39 63.49481 -112.85420 22196 ft 325 kts 230°
2026-05-06 00:39 63.47781 -112.88761 22191 ft 325 kts 229°
2026-05-06 00:39 63.46075 -112.92077 22192 ft 325 kts 229°
2026-05-06 00:39 63.44385 -112.95349 22189 ft 325 kts 229°
2026-05-06 00:40 63.42681 -112.98651 22185 ft 325 kts 229°
2026-05-06 00:40 63.40969 -113.01965 22060 ft 328 kts 229°
2026-05-06 00:40 63.39247 -113.05313 21740 ft 327 kts 229°
2026-05-06 00:40 63.37527 -113.08669 21430 ft 328 kts 229°
2026-05-06 00:41 63.35818 -113.12006 21124 ft 325 kts 229°
2026-05-06 00:41 63.34117 -113.15339 20818 ft 325 kts 229°
2026-05-06 00:41 63.32406 -113.18674 20508 ft 327 kts 228°
2026-05-06 00:41 63.30678 -113.22012 20015 ft 331 kts 228°
2026-05-06 00:42 63.28928 -113.25399 19530 ft 334 kts 228°
2026-05-06 00:42 63.27206 -113.28737 19065 ft 331 kts 228°
2026-05-06 00:42 63.25468 -113.32050 18674 ft 328 kts 227°
2026-05-06 00:42 63.23732 -113.35341 18267 ft 327 kts 227°
2026-05-06 00:43 63.22012 -113.38593 17732 ft 322 kts 227°
2026-05-06 00:43 63.20318 -113.41826 17206 ft 319 kts 227°
2026-05-06 00:43 63.18652 -113.45037 16700 ft 315 kts 226°
2026-05-06 00:43 63.17011 -113.48185 16283 ft 312 kts 226°
2026-05-06 00:44 63.15340 -113.51401 15881 ft 320 kts 226°
2026-05-06 00:44 63.13657 -113.54614 15492 ft 320 kts 225°
2026-05-06 00:44 63.11974 -113.57826 15100 ft 319 kts 225°
2026-05-06 00:44 63.10311 -113.60990 14717 ft 316 kts 225°
2026-05-06 00:45 63.08650 -113.64104 14341 ft 310 kts 224°
2026-05-06 00:45 63.07021 -113.67161 13954 ft 306 kts 224°
2026-05-06 00:45 63.05411 -113.70188 13515 ft 302 kts 224°
2026-05-06 00:45 63.03824 -113.73193 13090 ft 300 kts 224°
2026-05-06 00:46 63.02236 -113.76172 12656 ft 298 kts 223°
2026-05-06 00:46 63.00665 -113.79125 12241 ft 296 kts 223°
2026-05-06 00:46 62.99105 -113.82069 11829 ft 294 kts 223°
2026-05-06 00:46 62.97549 -113.84977 11418 ft 292 kts 223°
2026-05-06 00:47 62.96000 -113.87849 11013 ft 288 kts 223°
2026-05-06 00:47 62.94777 -113.91129 10619 ft 277 kts 250°
2026-05-06 00:47 62.94343 -113.95167 10237 ft 269 kts 263°
2026-05-06 00:47 62.94071 -113.99231 9825 ft 268 kts 263°
2026-05-06 00:48 62.93841 -114.03274 9432 ft 266 kts 264°
2026-05-06 00:48 62.93651 -114.07313 9055 ft 265 kts 265°
2026-05-06 00:48 62.93486 -114.11344 8687 ft 265 kts 265°
2026-05-06 00:48 62.93341 -114.15379 8322 ft 265 kts 265°
2026-05-06 00:49 62.93213 -114.19410 7963 ft 265 kts 265°
2026-05-06 00:49 62.93097 -114.23440 7607 ft 264 kts 265°
2026-05-06 00:49 62.92992 -114.27471 7251 ft 264 kts 265°
2026-05-06 00:49 62.92902 -114.31477 6902 ft 263 kts 265°
2026-05-06 00:50 62.92823 -114.35478 6551 ft 262 kts 265°
2026-05-06 00:50 62.92756 -114.39466 6186 ft 260 kts 266°
2026-05-06 00:50 62.92700 -114.43433 5880 ft 259 kts 266°
2026-05-06 00:50 62.92659 -114.47325 5552 ft 257 kts 266°
2026-05-06 00:51 62.92621 -114.51232 5255 ft 256 kts 266°
2026-05-06 00:51 62.92590 -114.55151 4981 ft 255 kts 266°
2026-05-06 00:51 62.92568 -114.59042 4688 ft 255 kts 266°
2026-05-06 00:51 62.92566 -114.62908 4427 ft 253 kts 266°
2026-05-06 00:52 62.92553 -114.66775 4208 ft 252 kts 266°
2026-05-06 00:52 62.92554 -114.70611 4005 ft 251 kts 266°
2026-05-06 00:52 62.92539 -114.74448 3774 ft 252 kts 265°
2026-05-06 00:52 62.92544 -114.78296 3571 ft 252 kts 266°
2026-05-06 00:53 62.92555 -114.82146 3321 ft 252 kts 266°
2026-05-06 00:53 62.92567 -114.85970 3120 ft 249 kts 266°
2026-05-06 00:53 62.92583 -114.89727 3060 ft 250 kts 266°
2026-05-06 00:53 62.92622 -114.93559 3076 ft 251 kts 266°
2026-05-06 00:54 62.92661 -114.97369 3062 ft 249 kts 266°
2026-05-06 00:54 62.92686 -115.01158 3057 ft 247 kts 266°
2026-05-06 00:54 62.92712 -115.04955 3036 ft 249 kts 266°
2026-05-06 00:54 62.92738 -115.08765 3035 ft 250 kts 266°
2026-05-06 00:55 62.92763 -115.12575 3037 ft 249 kts 266°
2026-05-06 00:55 62.92790 -115.16364 3046 ft 249 kts 266°
2026-05-06 00:55 62.92682 -115.20119 3044 ft 243 kts 248°
2026-05-06 00:55 62.91750 -115.22996 3056 ft 230 kts 209°
2026-05-06 00:56 62.90250 -115.23864 3083 ft 225 kts 173°
2026-05-06 00:56 62.88835 -115.22490 3098 ft 228 kts 141°
2026-05-06 00:56 62.87657 -115.20117 3083 ft 231 kts 139°
2026-05-06 00:56 62.86500 -115.17742 3054 ft 229 kts 138°
2026-05-06 00:57 62.85369 -115.15275 3065 ft 229 kts 137°
2026-05-06 00:57 62.84249 -115.12779 3073 ft 230 kts 136°
2026-05-06 00:57 62.83131 -115.10266 3070 ft 229 kts 136°
2026-05-06 00:57 62.82024 -115.07735 3068 ft 231 kts 136°
2026-05-06 00:58 62.80917 -115.05186 3066 ft 231 kts 136°
2026-05-06 00:58 62.79809 -115.02655 3064 ft 229 kts 136°
2026-05-06 00:58 62.78723 -115.00166 3060 ft 230 kts 136°
2026-05-06 00:58 62.77619 -114.97624 3061 ft 230 kts 136°
2026-05-06 00:59 62.76516 -114.95093 3061 ft 229 kts 135°
2026-05-06 00:59 62.75574 -114.92276 3083 ft 231 kts 122°
2026-05-06 00:59 62.74803 -114.89182 3063 ft 232 kts 121°
2026-05-06 00:59 62.74051 -114.86070 3048 ft 232 kts 121°
2026-05-06 01:00 62.73307 -114.82939 3050 ft 231 kts 120°
2026-05-06 01:00 62.72602 -114.79910 3061 ft 222 kts 120°
2026-05-06 01:00 62.71928 -114.76971 3053 ft 212 kts 120°
2026-05-06 01:00 62.71284 -114.74130 3073 ft 205 kts 120°
2026-05-06 01:01 62.70665 -114.71389 3076 ft 199 kts 120°
2026-05-06 01:01 62.70058 -114.68691 3054 ft 198 kts 120°
2026-05-06 01:01 62.69455 -114.66009 3045 ft 197 kts 120°
2026-05-06 01:01 62.68856 -114.63332 3056 ft 197 kts 120°
2026-05-06 01:02 62.68255 -114.60649 3032 ft 197 kts 120°
2026-05-06 01:02 62.67660 -114.57986 3030 ft 195 kts 120°
2026-05-06 01:02 62.67061 -114.55331 3039 ft 195 kts 120°
2026-05-06 01:02 62.66426 -114.52741 3004 ft 190 kts 132°
2026-05-06 01:03 62.65426 -114.51311 3047 ft 162 kts 156°
2026-05-06 01:03 62.64496 -114.50365 3059 ft 136 kts 156°
2026-05-06 01:03 62.63668 -114.49519 3084 ft 131 kts 155°
2026-05-06 01:03 62.62842 -114.48711 3075 ft 126 kts 158°
2026-05-06 01:04 62.62075 -114.48047 3064 ft 114 kts 160°
2026-05-06 01:04 62.61327 -114.47415 3084 ft 117 kts 159°
2026-05-06 01:04 62.60571 -114.46837 3039 ft 114 kts 164°
2026-05-06 01:04 62.59792 -114.46430 3024 ft 116 kts 168°
2026-05-06 01:05 62.58988 -114.46147 3035 ft 118 kts 171°
2026-05-06 01:05 62.58172 -114.45953 3034 ft 121 kts 173°
2026-05-06 01:05 62.57341 -114.45817 2917 ft 122 kts 174°
2026-05-06 01:05 62.56502 -114.45692 2778 ft 120 kts 174°
2026-05-06 01:06 62.55672 -114.45578 2625 ft 120 kts 174°
2026-05-06 01:06 62.54833 -114.45461 2485 ft 122 kts 174°
2026-05-06 01:06 62.53986 -114.45343 2325 ft 121 kts 174°
2026-05-06 01:06 62.53141 -114.45216 2145 ft 122 kts 174°
2026-05-06 01:07 62.52293 -114.45092 1963 ft 122 kts 174°
2026-05-06 01:07 62.51445 -114.44969 1761 ft 123 kts 174°
2026-05-06 01:07 62.50586 -114.44836 1520 ft 125 kts 173°
2026-05-06 01:07 62.49714 -114.44712 1264 ft 126 kts 174°
2026-05-06 01:08 62.48853 -114.44594 1065 ft 122 kts 174°
2026-05-06 01:08 62.48012 -114.44512 865 ft 121 kts 173°
2026-05-06 01:08 62.47183 -114.44375 698 ft 113 kts 173°
2026-05-06 01:08 62.46486 -114.44261 684 ft 86 kts 175°
2026-05-06 01:09 62.46104 -114.44210 682 ft 37 kts 176°
2026-05-06 01:09 62.45940 -114.44195 685 ft 16 kts 179°
2026-05-06 01:09 62.45857 -114.44177 682 ft 5 kts 131°
2026-05-06 01:09 62.45885 -114.44144 685 ft 9 kts 354°
2026-05-06 01:10 62.45961 -114.44159 684 ft 12 kts 355°
2026-05-06 01:10 62.46062 -114.44178 683 ft 18 kts 355°
2026-05-06 01:10 62.46208 -114.44204 683 ft 23 kts 355°
2026-05-06 01:10 62.46392 -114.44228 684 ft 29 kts 358°
2026-05-06 01:11 62.46602 -114.44263 684 ft 31 kts 355°
2026-05-06 01:11 62.46798 -114.44303 682 ft 25 kts 353°
2026-05-06 01:11 62.46898 -114.44267 685 ft 11 kts 47°
2026-05-06 01:11 62.46939 -114.44141 684 ft 10 kts 56°
2026-05-06 01:12 62.46957 -114.44081 684 ft 0 kts 56°
2026-05-06 01:12 62.46959 -114.44077 681 ft 1 kts 56°
2026-05-06 01:12 62.46968 -114.44047 684 ft 4 kts 56°
2026-05-06 01:13 62.46993 -114.44002 683 ft 7 kts 17°
2026-05-06 01:13 62.47051 -114.44006 684 ft 9 kts 355°
2026-05-06 01:13 62.47106 -114.43996 684 ft 6 kts 39°
2026-05-06 01:13 62.47117 -114.43920 682 ft 4 kts 87°
2026-05-06 01:14 62.47118 -114.43890 683 ft 1 kts 85°
2026-05-06 01:14 62.47118 -114.43887 689 ft 0 kts 85°